Wind From: 11-12-2017 10:04 Until: 12-12-2017 06:00 warning for: Wind Level: Orange info button

Power and phone distribution networks may be disrupted for relatively long periods., Roofs and chimneys can be damaged. , Tree branches may break. , Vehicles can be deported. , Traffic may be disrupted, particularly on secondary roads in forest areas. Limit your trips. , Limit your speed in highway driving, especially if you drive a vehicle or hitch sensitive to wind. , Do not go for walks in forests or along the coast., In town, be vigilant against possible falling objects., Do not work on roofs and do not touch any electrical line fallen on the ground., Store or secure sensitive objects to wind or likely to be damaged., Always install power generators outside buildings. 


Meteo18 Weather Cam more information Meteo18 Weather Cam


Thunder radar more information blitzortung!


Rain radar more information rain snow radar


Visit our other weather sites:

Template documentation
and downloads

And another site



Weather Underground History page Text

Daily Summary for February 12, 2017 Units:  Metric    English   Both
« Previous Day
Next Day »
Daily Weekly Monthly Yearly Custom
  High: Low: Average:
Temperature: 13.1 °C -0.4 °C 5 °C
Dew Point: 7.6 °C -2.3 °C 2.5 °C
Humidity: 97 % 66 % 85 %
Wind Speed: 19.3 km/h 0.0 km/h 7.2 km/h
Wind Gust: 27.4 km/h - -
Wind:- - East
Pressure: 1018.2 hPa 1016.1 hPa -
Precipitation: 2.0 mm    
Historical Graphs
 
 
Tabular Data for February 12, 2017
Time Temperature Dew Point Pressure Wind Wind Speed Wind Gust Humidity Rainfall Rate (Hourly)
00:02 0.1 °C -2.3 °C 1018.2 hPa NNE 6.4 km/h 14.5 km/h 84 % 0.0 mm
00:12 0.1 °C -2.3 °C 1018.2 hPa NE 8.0 km/h 12.9 km/h 84 % 0.0 mm
00:17 0.2 °C -2.2 °C 1018.2 hPa NE 8.0 km/h 12.9 km/h 84 % 0.0 mm
00:22 0.2 °C -2.2 °C 1018.2 hPa NE 6.4 km/h 12.9 km/h 84 % 0.0 mm
00:32 0.2 °C -2.2 °C 1018.2 hPa NNE 4.8 km/h 12.9 km/h 84 % 0.0 mm
00:37 0.2 °C -2.2 °C 1018.2 hPa North 8.0 km/h 12.9 km/h 84 % 0.0 mm
00:42 0.2 °C -2.2 °C 1018.2 hPa NNE 9.7 km/h 12.9 km/h 84 % 0.0 mm
00:47 0.2 °C -2.2 °C 1018.2 hPa NE 9.7 km/h 14.5 km/h 84 % 0.0 mm
00:52 0.2 °C -2.2 °C 1018.2 hPa NE 6.4 km/h 16.1 km/h 84 % 0.0 mm
00:57 0.2 °C -2.2 °C 1018.2 hPa NE 8.0 km/h 16.1 km/h 84 % 0.0 mm
01:02 0.2 °C -2.2 °C 1018.2 hPa NNE 6.4 km/h 14.5 km/h 84 % 0.0 mm
01:12 0.2 °C -2.2 °C 1018.2 hPa NE 3.2 km/h 16.1 km/h 84 % 0.0 mm
01:17 0.1 °C -2.1 °C 1018.2 hPa NE 8.0 km/h 16.1 km/h 85 % 0.0 mm
01:22 0.1 °C -2.1 °C 1018.2 hPa NE 6.4 km/h 16.1 km/h 85 % 0.0 mm
01:27 0.1 °C -2.1 °C 1018.2 hPa NE 6.4 km/h 14.5 km/h 85 % 0.0 mm
01:32 0.0 °C -2.1 °C 1018.2 hPa North 9.7 km/h 14.5 km/h 86 % 0.0 mm
01:42 -0.1 °C -2.0 °C 1017.8 hPa NE 8.0 km/h 16.1 km/h 87 % 0.0 mm
01:47 -0.2 °C -1.9 °C 1017.8 hPa NE 6.4 km/h 16.1 km/h 88 % 0.0 mm
01:52 -0.3 °C -1.9 °C 1017.8 hPa NE 6.4 km/h 14.5 km/h 89 % 0.0 mm
01:57 -0.4 °C -2.0 °C 1018.2 hPa North 3.2 km/h 16.1 km/h 89 % 0.0 mm
02:02 -0.4 °C -2.0 °C 1017.8 hPa NNE 12.9 km/h 16.1 km/h 89 % 0.0 mm
02:07 -0.4 °C -2.0 °C 1017.8 hPa NE 12.9 km/h 16.1 km/h 89 % 0.0 mm
02:17 -0.4 °C -2.0 °C 1017.8 hPa NE 12.9 km/h 16.1 km/h 89 % 0.0 mm
02:22 -0.3 °C -1.9 °C 1017.8 hPa NNW 8.0 km/h 16.1 km/h 89 % 0.0 mm
02:32 -0.3 °C -1.9 °C 1017.8 hPa North 8.0 km/h 17.7 km/h 89 % 0.0 mm
02:37 -0.3 °C -1.9 °C 1017.8 hPa NNE 9.7 km/h 19.3 km/h 89 % 0.0 mm
02:42 -0.3 °C -1.9 °C 1017.8 hPa NE 14.5 km/h 19.3 km/h 89 % 0.0 mm
02:52 -0.2 °C -1.8 °C 1017.8 hPa NE 17.7 km/h 19.3 km/h 89 % 0.0 mm
02:57 -0.2 °C -1.6 °C 1017.8 hPa NW 3.2 km/h 20.9 km/h 90 % 0.0 mm
03:02 -0.2 °C -1.8 °C 1017.8 hPa North 12.9 km/h 20.9 km/h 89 % 0.0 mm
03:12 -0.3 °C -1.7 °C 1017.8 hPa NNE 4.8 km/h 20.9 km/h 90 % 0.0 mm
03:22 -0.3 °C -1.7 °C 1017.5 hPa NNE 11.3 km/h 20.9 km/h 90 % 0.0 mm
03:27 -0.3 °C -1.6 °C 1017.5 hPa NNE 19.3 km/h 25.7 km/h 91 % 0.0 mm
03:32 -0.3 °C -1.6 °C 1017.5 hPa NE 12.9 km/h 25.7 km/h 91 % 0.0 mm
03:37 -0.3 °C -1.6 °C 1017.8 hPa North 11.3 km/h 25.7 km/h 91 % 0.0 mm
03:42 -0.3 °C -1.6 °C 1017.8 hPa NE 14.5 km/h 25.7 km/h 91 % 0.0 mm
03:47 -0.3 °C -1.6 °C 1017.8 hPa NNE 8.0 km/h 20.9 km/h 91 % 0.0 mm
03:52 -0.3 °C -1.4 °C 1017.8 hPa NNE 12.9 km/h 19.3 km/h 92 % 0.0 mm
04:02 -0.4 °C -1.5 °C 1017.8 hPa NE 12.9 km/h 19.3 km/h 92 % 0.0 mm
04:12 -0.4 °C -1.4 °C 1017.5 hPa NE 12.9 km/h 17.7 km/h 93 % 0.0 mm
04:17 -0.4 °C -1.4 °C 1017.5 hPa NNE 11.3 km/h 22.5 km/h 93 % 0.0 mm
04:22 -0.4 °C -1.4 °C 1017.2 hPa NE 11.3 km/h 22.5 km/h 93 % 0.3 mm
04:27 -0.3 °C -1.3 °C 1017.2 hPa NNE 9.7 km/h 22.5 km/h 93 % 0.3 mm
04:32 -0.3 °C -1.3 °C 1017.5 hPa NNE 12.9 km/h 19.3 km/h 93 % 0.3 mm
04:37 -0.3 °C -1.3 °C 1017.5 hPa NNE 11.3 km/h 17.7 km/h 93 % 0.5 mm
04:42 -0.3 °C -1.3 °C 1017.2 hPa NE 14.5 km/h 17.7 km/h 93 % 0.8 mm
04:47 -0.3 °C -1.1 °C 1017.2 hPa NE 11.3 km/h 17.7 km/h 94 % 0.8 mm
04:52 -0.3 °C -1.1 °C 1017.2 hPa NNE 9.7 km/h 17.7 km/h 94 % 0.8 mm
04:57 -0.3 °C -1.1 °C 1017.2 hPa ENE 9.7 km/h 19.3 km/h 94 % 0.8 mm
05:02 -0.3 °C -1.1 °C 1017.2 hPa NNE 12.9 km/h 19.3 km/h 94 % 0.8 mm
05:07 -0.3 °C -1.1 °C 1017.2 hPa NE 11.3 km/h 17.7 km/h 94 % 0.8 mm
05:12 -0.3 °C -1.1 °C 1017.2 hPa NE 14.5 km/h 17.7 km/h 94 % 0.8 mm
05:17 -0.3 °C -1.0 °C 1017.2 hPa North 6.4 km/h 17.7 km/h 95 % 0.5 mm
05:27 -0.2 °C -0.9 °C 1017.2 hPa ENE 6.4 km/h 19.3 km/h 95 % 0.5 mm
05:32 -0.2 °C -0.9 °C 1017.2 hPa NNE 8.0 km/h 19.3 km/h 95 % 0.5 mm
05:37 -0.2 °C -0.9 °C 1017.2 hPa NNE 11.3 km/h 17.7 km/h 95 % 0.3 mm
05:42 -0.2 °C -0.9 °C 1017.2 hPa NE 11.3 km/h 17.7 km/h 95 % 0.3 mm
05:47 -0.2 °C -0.9 °C 1017.2 hPa NE 6.4 km/h 17.7 km/h 95 % 0.0 mm
05:52 -0.2 °C -0.9 °C 1017.2 hPa NNE 8.0 km/h 17.7 km/h 95 % 0.0 mm
05:57 -0.1 °C -0.8 °C 1017.2 hPa ENE 8.0 km/h 14.5 km/h 95 % 0.0 mm
06:02 -0.1 °C -0.8 °C 1017.2 hPa NNE 4.8 km/h 14.5 km/h 95 % 0.0 mm
06:07 -0.1 °C -0.8 °C 1017.2 hPa NNE 12.9 km/h 14.5 km/h 95 % 0.0 mm
06:12 0.0 °C -0.7 °C 1017.2 hPa North 6.4 km/h 14.5 km/h 95 % 0.0 mm
06:17 0.0 °C -0.7 °C 1017.2 hPa NNE 9.7 km/h 14.5 km/h 95 % 0.0 mm
06:22 0.1 °C -0.6 °C 1017.2 hPa North 4.8 km/h 14.5 km/h 95 % 0.0 mm
06:27 0.1 °C -0.6 °C 1017.2 hPa NNE 6.4 km/h 14.5 km/h 95 % 0.0 mm
06:32 0.1 °C -0.6 °C 1017.2 hPa NE 8.0 km/h 11.3 km/h 95 % 0.0 mm
06:37 0.1 °C -0.6 °C 1017.2 hPa NE 1.6 km/h 11.3 km/h 95 % 0.0 mm
06:42 0.1 °C -0.6 °C 1017.2 hPa North 3.2 km/h 12.9 km/h 95 % 0.0 mm
06:47 0.2 °C -0.5 °C 1016.8 hPa NNE 9.7 km/h 12.9 km/h 95 % 0.0 mm
06:52 0.2 °C -0.5 °C 1016.8 hPa NNW 6.4 km/h 11.3 km/h 95 % 0.0 mm
06:57 0.2 °C -0.5 °C 1017.2 hPa NNE 4.8 km/h 11.3 km/h 95 % 0.0 mm
07:02 0.2 °C -0.5 °C 1017.2 hPa NE 4.8 km/h 12.9 km/h 95 % 0.0 mm
07:07 0.2 °C -0.4 °C 1017.2 hPa NNW 1.6 km/h 12.9 km/h 96 % 0.0 mm
07:17 0.2 °C -0.4 °C 1017.2 hPa NE 4.8 km/h 8.0 km/h 96 % 0.0 mm
07:22 0.2 °C -0.4 °C 1017.2 hPa ENE 4.8 km/h 6.4 km/h 96 % 0.0 mm
07:37 0.3 °C -0.3 °C 1017.2 hPa North 1.6 km/h 8.0 km/h 96 % 0.0 mm
07:42 0.3 °C -0.3 °C 1017.2 hPa NNW 1.6 km/h 8.0 km/h 96 % 0.0 mm
07:47 0.3 °C -0.3 °C 1017.2 hPa NNE 4.8 km/h 6.4 km/h 96 % 0.0 mm
07:52 0.3 °C -0.3 °C 1017.2 hPa NNE 3.2 km/h 6.4 km/h 96 % 0.0 mm
07:57 0.3 °C -0.3 °C 1017.2 hPa Calm   4.8 km/h 96 % 0.0 mm
08:02 0.3 °C -0.3 °C 1017.2 hPa Calm   4.8 km/h 96 % 0.0 mm
08:12 0.4 °C -0.2 °C 1017.2 hPa NNE 3.2 km/h 6.4 km/h 96 % 0.0 mm
08:17 0.4 °C -0.2 °C 1017.2 hPa NNE 1.6 km/h 6.4 km/h 96 % 0.0 mm
08:22 0.4 °C -0.2 °C 1017.2 hPa NNE 1.6 km/h 6.4 km/h 96 % 0.0 mm
08:32 0.4 °C -0.2 °C 1017.5 hPa North 3.2 km/h 6.4 km/h 96 % 0.0 mm
08:37 0.5 °C -0.1 °C 1017.5 hPa NNE 3.2 km/h 6.4 km/h 96 % 0.0 mm
08:42 0.5 °C -0.1 °C 1017.5 hPa NNE 1.6 km/h 6.4 km/h 96 % 0.0 mm
08:47 0.6 °C 0.0 °C 1017.5 hPa NNE 1.6 km/h 6.4 km/h 96 % 0.0 mm
08:52 0.6 °C 0.0 °C 1017.5 hPa Calm   6.4 km/h 96 % 0.0 mm
08:57 0.6 °C 0.0 °C 1017.5 hPa Calm   6.4 km/h 96 % 0.0 mm
09:02 0.7 °C 0.1 °C 1017.5 hPa North 1.6 km/h 6.4 km/h 96 % 0.0 mm
09:12 0.8 °C 0.2 °C 1017.5 hPa Calm   3.2 km/h 96 % 0.3 mm
09:17 0.9 °C 0.5 °C 1017.5 hPa NE 1.6 km/h 4.8 km/h 97 % 0.3 mm
09:22 0.9 °C 0.5 °C 1017.5 hPa NE 4.8 km/h 4.8 km/h 97 % 0.3 mm
09:27 1.0 °C 0.6 °C 1017.5 hPa NNE 3.2 km/h 4.8 km/h 97 % 0.3 mm
09:32 1.1 °C 0.7 °C 1017.5 hPa NNE 3.2 km/h 6.4 km/h 97 % 0.3 mm
09:37 1.1 °C 0.7 °C 1017.5 hPa NNE 3.2 km/h 6.4 km/h 97 % 0.3 mm
09:42 1.2 °C 0.8 °C 1017.5 hPa NE 1.6 km/h 6.4 km/h 97 % 0.3 mm
09:52 1.3 °C 0.9 °C 1017.5 hPa NNE 3.2 km/h 6.4 km/h 97 % 0.3 mm
09:57 1.4 °C 1.0 °C 1017.5 hPa ENE 4.8 km/h 6.4 km/h 97 % 0.5 mm
10:02 1.6 °C 1.2 °C 1017.5 hPa NNW 3.2 km/h 8.0 km/h 97 % 0.5 mm
10:12 1.9 °C 1.5 °C 1017.5 hPa NE 6.4 km/h 8.0 km/h 97 % 0.5 mm
10:17 2.1 °C 1.7 °C 1017.5 hPa NNE 1.6 km/h 9.7 km/h 97 % 0.5 mm
10:22 2.3 °C 1.9 °C 1017.2 hPa North 3.2 km/h 16.1 km/h 97 % 0.5 mm
10:32 2.6 °C 2.2 °C 1017.5 hPa NE 3.2 km/h 16.1 km/h 97 % 0.8 mm
10:37 2.8 °C 2.4 °C 1017.5 hPa NNW 3.2 km/h 11.3 km/h 97 % 0.8 mm
10:42 3.1 °C 2.7 °C 1017.5 hPa North 1.6 km/h 9.7 km/h 97 % 0.8 mm
10:52 3.4 °C 3.0 °C 1017.5 hPa NNE 8.0 km/h 9.7 km/h 97 % 1.0 mm
10:57 3.5 °C 2.9 °C 1017.5 hPa ENE 3.2 km/h 9.7 km/h 96 % 0.8 mm
11:02 3.8 °C 3.2 °C 1017.2 hPa NE 4.8 km/h 12.9 km/h 96 % 0.8 mm
11:12 4.2 °C 3.6 °C 1017.2 hPa NE 3.2 km/h 12.9 km/h 96 % 0.5 mm
11:17 4.3 °C 3.6 °C 1017.2 hPa NNE 3.2 km/h 12.9 km/h 95 % 0.5 mm
11:22 4.3 °C 3.6 °C 1017.5 hPa NNE 1.6 km/h 11.3 km/h 95 % 0.3 mm
11:27 4.2 °C 3.5 °C 1017.5 hPa ENE 8.0 km/h 8.0 km/h 95 % 0.3 mm
11:32 4.4 °C 3.7 °C 1017.2 hPa NE 1.6 km/h 11.3 km/h 95 % 0.3 mm
11:37 4.8 °C 4.2 °C 1017.2 hPa NE 3.2 km/h 11.3 km/h 96 % 0.3 mm
11:42 5.1 °C 4.4 °C 1017.2 hPa East 6.4 km/h 11.3 km/h 95 % 0.3 mm
11:47 5.4 °C 4.7 °C 1017.2 hPa NE 1.6 km/h 12.9 km/h 95 % 0.0 mm
11:52 5.6 °C 4.7 °C 1017.2 hPa NNW 4.8 km/h 12.9 km/h 94 % 0.0 mm
11:57 5.8 °C 4.9 °C 1017.2 hPa Calm   12.9 km/h 94 % 0.0 mm
12:02 6.1 °C 5.1 °C 1017.2 hPa NNE 4.8 km/h 9.7 km/h 93 % 0.0 mm
12:12 6.8 °C 5.7 °C 1017.2 hPa ENE 9.7 km/h 9.7 km/h 93 % 0.0 mm
12:17 7.1 °C 5.9 °C 1017.2 hPa ENE 6.4 km/h 8.0 km/h 92 % 0.0 mm
12:22 7.2 °C 5.8 °C 1017.2 hPa ENE 3.2 km/h 9.7 km/h 91 % 0.0 mm
12:27 7.4 °C 6.0 °C 1017.2 hPa NNE 1.6 km/h 9.7 km/h 91 % 0.0 mm
12:32 7.5 °C 6.0 °C 1017.2 hPa NNE 6.4 km/h 9.7 km/h 90 % 0.0 mm
12:37 7.6 °C 6.1 °C 1017.2 hPa ENE 1.6 km/h 9.7 km/h 90 % 0.0 mm
12:42 7.7 °C 6.2 °C 1017.2 hPa ENE 4.8 km/h 9.7 km/h 90 % 0.0 mm
12:52 8.1 °C 6.4 °C 1016.8 hPa ENE 4.8 km/h 9.7 km/h 89 % 0.0 mm
12:57 8.3 °C 6.4 °C 1016.8 hPa NE 1.6 km/h 9.7 km/h 88 % 0.0 mm
13:02 8.4 °C 6.7 °C 1016.8 hPa NNE 4.8 km/h 9.7 km/h 89 % 0.0 mm
13:07 8.4 °C 6.7 °C 1016.8 hPa NE 3.2 km/h 9.7 km/h 89 % 0.0 mm
13:12 8.5 °C 6.6 °C 1016.8 hPa ENE 4.8 km/h 9.7 km/h 88 % 0.0 mm
13:17 8.6 °C 6.7 °C 1016.8 hPa NE 3.2 km/h 9.7 km/h 88 % 0.0 mm
13:22 8.7 °C 7.0 °C 1016.8 hPa ENE 6.4 km/h 9.7 km/h 89 % 0.0 mm
13:32 9.0 °C 7.1 °C 1016.8 hPa ENE 3.2 km/h 8.0 km/h 88 % 0.0 mm
13:42 9.7 °C 7.1 °C 1016.8 hPa East 9.7 km/h 11.3 km/h 84 % 0.0 mm
13:47 10.2 °C 7.3 °C 1016.5 hPa ESE 4.8 km/h 14.5 km/h 82 % 0.0 mm
13:57 10.6 °C 7.5 °C 1016.5 hPa SE 9.7 km/h 14.5 km/h 81 % 0.0 mm
14:02 10.8 °C 7.5 °C 1016.5 hPa SE 6.4 km/h 12.9 km/h 80 % 0.0 mm
14:12 11.3 °C 7.4 °C 1016.5 hPa ESE 3.2 km/h 20.9 km/h 77 % 0.0 mm
14:17 11.4 °C 6.9 °C 1016.5 hPa East 17.7 km/h 20.9 km/h 74 % 0.0 mm
14:22 11.5 °C 7.0 °C 1016.5 hPa ENE 14.5 km/h 20.9 km/h 74 % 0.0 mm
14:27 11.6 °C 7.3 °C 1016.5 hPa East 11.3 km/h 20.9 km/h 75 % 0.0 mm
14:32 11.7 °C 7.2 °C 1016.1 hPa ENE 14.5 km/h 20.9 km/h 74 % 0.0 mm
14:42 11.7 °C 6.8 °C 1016.1 hPa ESE 4.8 km/h 22.5 km/h 72 % 0.0 mm
14:47 11.8 °C 7.3 °C 1016.1 hPa ENE 9.7 km/h 22.5 km/h 74 % 0.0 mm
14:57 11.9 °C 6.8 °C 1016.1 hPa East 6.4 km/h 16.1 km/h 71 % 0.0 mm
15:02 12.0 °C 6.9 °C 1016.1 hPa East 9.7 km/h 16.1 km/h 71 % 0.0 mm
15:07 12.0 °C 6.7 °C 1016.1 hPa ESE 11.3 km/h 20.9 km/h 70 % 0.0 mm
15:17 12.1 °C 6.6 °C 1016.1 hPa East 8.0 km/h 20.9 km/h 69 % 0.0 mm
15:22 12.4 °C 7.1 °C 1016.1 hPa East 8.0 km/h 16.1 km/h 70 % 0.0 mm
15:32 12.8 °C 7.0 °C 1016.1 hPa ENE 6.4 km/h 14.5 km/h 68 % 0.0 mm
15:37 12.8 °C 6.6 °C 1016.1 hPa East 12.9 km/h 17.7 km/h 66 % 0.0 mm
15:42 12.9 °C 7.6 °C 1016.1 hPa SE 3.2 km/h 17.7 km/h 70 % 0.0 mm
15:47 13.1 °C 7.1 °C 1016.1 hPa East 14.5 km/h 17.7 km/h 67 % 0.0 mm
15:52 12.9 °C 7.1 °C 1016.1 hPa East 9.7 km/h 17.7 km/h 68 % 0.0 mm
15:57 12.9 °C 6.9 °C 1016.1 hPa ESE 8.0 km/h 17.7 km/h 67 % 0.0 mm
16:02 12.8 °C 7.0 °C 1016.1 hPa East 9.7 km/h 22.5 km/h 68 % 0.0 mm
16:07 12.8 °C 6.8 °C 1016.1 hPa ESE 8.0 km/h 22.5 km/h 67 % 0.0 mm
16:12 12.8 °C 6.6 °C 1016.1 hPa East 12.9 km/h 22.5 km/h 66 % 0.0 mm
16:17 12.8 °C 6.8 °C 1016.1 hPa East 4.8 km/h 17.7 km/h 67 % 0.0 mm
16:22 12.8 °C 6.8 °C 1016.1 hPa East 11.3 km/h 17.7 km/h 67 % 0.0 mm
16:32 12.7 °C 6.5 °C 1016.1 hPa East 8.0 km/h 20.9 km/h 66 % 0.0 mm
16:42 12.5 °C 6.5 °C 1016.1 hPa ENE 9.7 km/h 20.9 km/h 67 % 0.0 mm
16:52 12.4 °C 6.4 °C 1016.5 hPa East 14.5 km/h 17.7 km/h 67 % 0.0 mm
16:57 12.4 °C 6.4 °C 1016.1 hPa ESE 6.4 km/h 20.9 km/h 67 % 0.0 mm
17:02 12.3 °C 6.3 °C 1016.1 hPa East 8.0 km/h 20.9 km/h 67 % 0.0 mm
17:07 12.2 °C 6.5 °C 1016.5 hPa East 4.8 km/h 20.9 km/h 68 % 0.0 mm
17:12 12.2 °C 6.3 °C 1016.5 hPa ENE 8.0 km/h 14.5 km/h 67 % 0.0 mm
17:17 12.2 °C 6.5 °C 1016.5 hPa ESE 8.0 km/h 19.3 km/h 68 % 0.0 mm
17:22 12.1 °C 6.4 °C 1016.5 hPa SSE 6.4 km/h 19.3 km/h 68 % 0.0 mm
17:32 12.1 °C 6.2 °C 1016.5 hPa East 9.7 km/h 19.3 km/h 67 % 0.0 mm
17:42 12.0 °C 6.1 °C 1016.8 hPa SE 9.7 km/h 12.9 km/h 67 % 0.0 mm
17:47 12.0 °C 5.8 °C 1016.8 hPa East 11.3 km/h 17.7 km/h 66 % 0.0 mm
17:52 11.9 °C 5.7 °C 1016.8 hPa East 9.7 km/h 17.7 km/h 66 % 0.0 mm
17:57 11.8 °C 5.9 °C 1016.8 hPa East 8.0 km/h 17.7 km/h 67 % 0.0 mm
18:02 11.8 °C 5.9 °C 1016.8 hPa East 8.0 km/h 16.1 km/h 67 % 0.0 mm
18:12 11.6 °C 5.7 °C 1016.8 hPa East 6.4 km/h 16.1 km/h 67 % 0.0 mm
18:17 11.6 °C 5.9 °C 1016.8 hPa ESE 11.3 km/h 16.1 km/h 68 % 0.0 mm
18:22 11.4 °C 5.7 °C 1017.2 hPa ENE 4.8 km/h 16.1 km/h 68 % 0.0 mm
18:27 11.3 °C 5.6 °C 1016.8 hPa ENE 12.9 km/h 16.1 km/h 68 % 0.0 mm
18:32 11.4 °C 5.7 °C 1016.8 hPa ENE 6.4 km/h 17.7 km/h 68 % 0.0 mm
18:37 11.3 °C 5.8 °C 1017.2 hPa East 8.0 km/h 17.7 km/h 69 % 0.0 mm
18:42 11.2 °C 5.7 °C 1016.8 hPa East 11.3 km/h 17.7 km/h 69 % 0.0 mm
18:47 11.3 °C 5.6 °C 1017.2 hPa East 9.7 km/h 27.4 km/h 68 % 0.0 mm
18:52 11.4 °C 5.5 °C 1016.8 hPa ESE 12.9 km/h 27.4 km/h 67 % 0.0 mm
19:02 11.1 °C 5.6 °C 1017.2 hPa ENE 11.3 km/h 24.1 km/h 69 % 0.0 mm
19:07 10.8 °C 5.5 °C 1017.2 hPa ENE 12.9 km/h 20.9 km/h 70 % 0.0 mm
19:12 10.6 °C 5.6 °C 1017.2 hPa ENE 8.0 km/h 16.1 km/h 71 % 0.0 mm
19:17 10.5 °C 5.5 °C 1017.2 hPa ENE 11.3 km/h 19.3 km/h 71 % 0.0 mm
19:22 10.4 °C 5.6 °C 1017.2 hPa East 14.5 km/h 19.3 km/h 72 % 0.0 mm
19:32 10.6 °C 5.6 °C 1017.5 hPa ENE 14.5 km/h 16.1 km/h 71 % 0.0 mm
19:37 10.6 °C 5.4 °C 1017.5 hPa East 9.7 km/h 16.1 km/h 70 % 0.0 mm
19:42 10.6 °C 5.6 °C 1017.5 hPa ENE 11.3 km/h 16.1 km/h 71 % 0.0 mm
19:52 10.3 °C 5.3 °C 1017.5 hPa ENE 11.3 km/h 16.1 km/h 71 % 0.0 mm
19:57 10.2 °C 5.4 °C 1017.5 hPa East 6.4 km/h 16.1 km/h 72 % 0.0 mm
20:02 10.0 °C 5.4 °C 1017.5 hPa ENE 6.4 km/h 16.1 km/h 73 % 0.0 mm
20:12 9.7 °C 5.1 °C 1017.5 hPa ENE 8.0 km/h 12.9 km/h 73 % 0.0 mm
20:22 9.7 °C 5.3 °C 1017.5 hPa ENE 6.4 km/h 16.1 km/h 74 % 0.0 mm
20:27 9.5 °C 5.1 °C 1017.5 hPa ENE 8.0 km/h 16.1 km/h 74 % 0.0 mm
20:32 9.4 °C 5.2 °C 1017.5 hPa ENE 8.0 km/h 12.9 km/h 75 % 0.0 mm
20:42 9.2 °C 5.0 °C 1017.5 hPa NE 8.0 km/h 14.5 km/h 75 % 0.0 mm
20:47 9.2 °C 5.0 °C 1017.5 hPa ENE 8.0 km/h 14.5 km/h 75 % 0.0 mm
20:52 9.2 °C 5.0 °C 1017.5 hPa ENE 1.6 km/h 12.9 km/h 75 % 0.0 mm
20:57 9.1 °C 4.9 °C 1017.8 hPa NNE 3.2 km/h 11.3 km/h 75 % 0.0 mm
21:02 9.1 °C 4.9 °C 1017.8 hPa ENE 11.3 km/h 11.3 km/h 75 % 0.0 mm
21:12 9.1 °C 4.9 °C 1017.8 hPa ENE 3.2 km/h 12.9 km/h 75 % 0.0 mm
21:17 9.0 °C 4.8 °C 1017.8 hPa ENE 4.8 km/h 12.9 km/h 75 % 0.0 mm
21:27 8.8 °C 4.6 °C 1017.8 hPa ENE 6.4 km/h 11.3 km/h 75 % 0.0 mm
21:32 8.8 °C 4.6 °C 1017.8 hPa ENE 1.6 km/h 11.3 km/h 75 % 0.0 mm
21:42 8.7 °C 4.5 °C 1017.8 hPa NE 3.2 km/h 11.3 km/h 75 % 0.0 mm
21:47 8.7 °C 4.5 °C 1017.8 hPa ENE 8.0 km/h 11.3 km/h 75 % 0.0 mm
21:52 8.7 °C 4.7 °C 1017.8 hPa ENE 4.8 km/h 11.3 km/h 76 % 0.0 mm
22:02 8.7 °C 4.5 °C 1017.8 hPa NE 3.2 km/h 9.7 km/h 75 % 0.0 mm
Meteo18
Compliments of Weather Underground - 4 mb

Script developed by  Jim McMurry - jmcmurry@mwt.net Adapted for the template by  Wim van der Kuil - Leuven-Template.eu

You find our weather info also at:

European Weather Network

Weather Underground

Equipment we use:

Weather-station
Davis Vue

Weather-program
Meteohub

Weather-server
Raspberry PI 2 B+

Provider
1 and 1

Davis Vue

Meteohub

Raspberry PI 2 B+

1 and 1